Weather in Sigaevo

Russia / Udmurt Republic     56°25′24″N   53°46′39″E
temp.,
°C
wind,
m/s
gust,
m/s
humid.,
%
clouds,
%
prec.,
mm/h
press.,
hPa
HPBL,
m
15 april, thu
thu1501:00+9s347967 0.0 102548
04:00+8s338677 0.0 102430
07:00+9s268426 0.0 1023146
10:00+15ssw46595 0.0 1022481
13:00+18ssw57470 0.0 10211138
16:00+19sw47424 0.0 10201631
19:00+15sw22570 0.0 101919
22:00+12wnw11652 0.0 101910
16 april, fri
fri1601:00+8nne5109223 0.0 1020242
04:00+6ne5118715 0.0 1022394
07:00+6ne6128317 0.0 1024501
10:00+8ne686980 0.0 1025631
13:00+9ne677094 0.0 1025629
16:00+9ene676893 0.0 1025754
19:00+8ene36744 0.0 1025161
22:00+5ne35860 0.0 102691
17 april, sat
sat1701:00+3nne39800 0.0 1026185
04:00+1nne39750 0.0 1026169
07:00+2nne39650 0.0 1027250
10:00+8ne57415 0.0 1027812
13:00+10nne55375 0.0 10261326
16:00+11nne55374 0.0 10251555
19:00+8nne22535 0.0 102421
22:00+5nnw35675 0.0 102491
18 april, sun
sun1801:00+3nnw34720 0.0 102467
04:00+2nnw23765 0.0 102335
07:00+4nw39744 0.0 1023289
10:00+7n795855 0.0 10221374
13:00+5nne7104888 0.0 10251708
16:00+6nne7103173 0.0 10262257
19:00+3ne610385 0.0 1028949
22:000ne510493 0.0 1031441
19 april, mon
mon1901:00−1nne38665 0.0 1033260
04:00−2nne37705 0.0 1035230
07:00−1ne34545 0.0 1037460
10:00+2nne34345 0.0 10381699
13:00+4nne45303 0.0 10371856
16:00+5n44280 0.0 10371825
19:00+3nne11410 0.0 103711
22:00+1nnw11450 0.0 103810